Time,TemperatureF,DewpointF,PressureIn,WindDirection,WindDirectionDegrees,WindSpeedMPH,WindSpeedGustMPH,Humidity,HourlyPrecipIn,Conditions,Clouds,dailyrainin,SoftwareType,DateUTC
2013-09-14 00:01:00,39.8,37.9,30.17,ENE,61,0.0,0.0,93,0.00,,,0.00,Wunderground v.1.15,2013-09-14 04:01:00,
2013-09-14 00:03:00,39.8,37.9,30.17,ENE,61,0.0,0.0,93,0.00,,,0.00,Wunderground v.1.15,2013-09-14 04:03:00,
2013-09-14 00:04:00,39.7,37.8,30.17,ENE,61,0.0,0.0,93,0.00,,,0.00,Wunderground v.1.15,2013-09-14 04:04:00,
2013-09-14 00:06:00,39.6,37.7,30.17,ENE,61,0.0,0.0,93,0.00,,,0.00,Wunderground v.1.15,2013-09-14 04:06:00,
2013-09-14 00:12:00,39.6,37.7,30.17,ENE,61,0.0,0.0,93,0.00,,,0.00,Wunderground v.1.15,2013-09-14 04:12:00,
2013-09-14 00:13:00,39.5,37.6,30.17,ENE,61,0.0,0.0,93,0.00,,,0.00,Wunderground v.1.15,2013-09-14 04:13:00,
2013-09-14 00:16:00,39.5,37.6,30.16,ENE,61,0.0,0.0,93,0.00,,,0.00,Wunderground v.1.15,2013-09-14 04:16:00,
2013-09-14 00:22:00,39.5,37.6,30.17,ENE,61,0.0,0.0,93,0.00,,,0.00,Wunderground v.1.15,2013-09-14 04:22:00,
2013-09-14 00:27:00,39.5,37.6,30.17,ENE,61,0.0,0.0,93,0.00,,,0.00,Wunderground v.1.15,2013-09-14 04:27:00,
2013-09-14 00:33:00,39.5,37.6,30.17,ENE,61,0.0,0.0,93,0.00,,,0.00,Wunderground v.1.15,2013-09-14 04:33:00,
2013-09-14 00:39:00,39.4,37.5,30.17,ENE,61,0.0,0.0,93,0.00,,,0.00,Wunderground v.1.15,2013-09-14 04:39:00,
2013-09-14 00:44:00,39.3,37.4,30.17,ENE,61,0.0,0.0,93,0.00,,,0.00,Wunderground v.1.15,2013-09-14 04:44:00,
2013-09-14 00:50:00,39.1,37.2,30.17,ENE,61,0.0,0.0,93,0.00,,,0.00,Wunderground v.1.15,2013-09-14 04:50:00,
2013-09-14 00:55:00,39.0,37.1,30.17,ENE,61,0.0,0.0,93,0.00,,,0.00,Wunderground v.1.15,2013-09-14 04:55:00,
2013-09-14 01:00:00,38.9,37.0,30.17,ENE,61,0.0,0.0,93,0.00,,,0.00,Wunderground v.1.15,2013-09-14 05:00:00,
2013-09-14 01:05:00,38.8,36.9,30.17,ENE,61,0.0,0.0,93,0.00,,,0.00,Wunderground v.1.15,2013-09-14 05:05:00,
2013-09-14 01:11:00,38.7,36.9,30.17,ENE,61,0.0,0.0,93,0.00,,,0.00,Wunderground v.1.15,2013-09-14 05:11:00,
2013-09-14 01:16:00,38.7,36.9,30.17,ENE,61,0.0,0.0,93,0.00,,,0.00,Wunderground v.1.15,2013-09-14 05:16:00,
2013-09-14 01:22:00,38.7,36.9,30.17,ENE,61,0.0,0.0,93,0.00,,,0.00,Wunderground v.1.15,2013-09-14 05:22:00,
2013-09-14 01:27:00,38.8,36.9,30.17,ENE,61,0.0,0.0,93,0.00,,,0.00,Wunderground v.1.15,2013-09-14 05:27:00,
2013-09-14 01:33:00,38.8,36.9,30.17,ENE,61,0.0,0.0,93,0.00,,,0.00,Wunderground v.1.15,2013-09-14 05:33:00,
2013-09-14 01:38:00,38.6,36.8,30.17,ENE,61,0.0,0.0,93,0.00,,,0.00,Wunderground v.1.15,2013-09-14 05:38:00,
2013-09-14 01:44:00,38.4,36.6,30.17,ENE,61,0.0,0.0,93,0.00,,,0.00,Wunderground v.1.15,2013-09-14 05:44:00,
2013-09-14 01:50:00,38.4,36.6,30.17,ENE,61,0.0,0.0,93,0.00,,,0.00,Wunderground v.1.15,2013-09-14 05:50:00,
2013-09-14 01:55:00,38.6,37.0,30.17,ENE,61,0.0,0.0,94,0.00,,,0.00,Wunderground v.1.15,2013-09-14 05:55:00,
2013-09-14 02:01:00,38.9,37.3,30.17,ENE,61,0.0,0.0,94,0.00,,,0.00,Wunderground v.1.15,2013-09-14 06:01:00,
2013-09-14 02:06:00,39.1,37.5,30.17,ENE,61,0.0,0.0,94,0.00,,,0.00,Wunderground v.1.15,2013-09-14 06:06:00,
2013-09-14 02:12:00,39.1,37.5,30.17,ENE,61,0.0,0.0,94,0.00,,,0.00,Wunderground v.1.15,2013-09-14 06:12:00,
2013-09-14 02:17:00,38.9,37.3,30.17,ENE,61,0.0,0.0,94,0.00,,,0.00,Wunderground v.1.15,2013-09-14 06:17:00,
2013-09-14 02:23:00,38.6,36.8,30.17,ENE,61,0.0,0.0,93,0.00,,,0.00,Wunderground v.1.15,2013-09-14 06:23:00,
2013-09-14 02:28:00,38.3,36.5,30.17,ENE,61,0.0,0.0,93,0.00,,,0.00,Wunderground v.1.15,2013-09-14 06:28:00,
2013-09-14 02:33:00,38.2,36.4,30.17,ENE,61,0.0,0.0,93,0.00,,,0.00,Wunderground v.1.15,2013-09-14 06:33:00,
2013-09-14 02:40:00,38.1,36.5,30.17,ENE,61,0.0,0.0,94,0.00,,,0.00,Wunderground v.1.15,2013-09-14 06:40:00,
2013-09-14 02:45:00,38.0,36.4,30.17,ENE,61,0.0,0.0,94,0.00,,,0.00,Wunderground v.1.15,2013-09-14 06:45:00,
2013-09-14 02:51:00,37.9,36.3,30.17,ENE,61,0.0,0.0,94,0.00,,,0.00,Wunderground v.1.15,2013-09-14 06:51:00,
2013-09-14 02:57:00,37.8,36.2,30.17,ENE,61,0.0,0.0,94,0.00,,,0.00,Wunderground v.1.15,2013-09-14 06:57:00,
2013-09-14 03:03:00,37.6,36.0,30.17,ENE,61,0.0,0.0,94,0.00,,,0.00,Wunderground v.1.15,2013-09-14 07:03:00,
2013-09-14 03:09:00,37.5,35.9,30.17,ENE,61,0.0,0.0,94,0.00,,,0.00,Wunderground v.1.15,2013-09-14 07:09:00,
2013-09-14 03:14:00,37.3,35.7,30.17,ENE,61,0.0,0.0,94,0.00,,,0.00,Wunderground v.1.15,2013-09-14 07:14:00,
2013-09-14 03:20:00,37.2,35.6,30.17,ENE,61,0.0,0.0,94,0.00,,,0.00,Wunderground v.1.15,2013-09-14 07:20:00,
2013-09-14 03:25:00,37.1,35.5,30.17,ENE,61,0.0,0.0,94,0.00,,,0.00,Wunderground v.1.15,2013-09-14 07:25:00,
2013-09-14 03:31:00,37.2,35.6,30.17,ENE,61,0.0,0.0,94,0.00,,,0.00,Wunderground v.1.15,2013-09-14 07:31:00,
2013-09-14 03:36:00,37.2,35.6,30.18,ENE,61,0.0,0.0,94,0.00,,,0.00,Wunderground v.1.15,2013-09-14 07:36:00,
2013-09-14 03:43:00,37.1,35.5,30.18,ENE,61,0.0,0.0,94,0.00,,,0.00,Wunderground v.1.15,2013-09-14 07:43:00,
2013-09-14 03:49:00,37.0,35.4,30.18,ENE,61,0.0,0.0,94,0.00,,,0.00,Wunderground v.1.15,2013-09-14 07:49:00,
2013-09-14 03:54:00,36.9,35.3,30.18,ENE,61,0.0,0.0,94,0.00,,,0.00,Wunderground v.1.15,2013-09-14 07:54:00,
2013-09-14 04:00:00,36.9,35.3,30.18,ENE,61,0.0,0.0,94,0.00,,,0.00,Wunderground v.1.15,2013-09-14 08:00:00,
2013-09-14 04:05:00,36.8,35.2,30.18,ENE,61,0.0,0.0,94,0.00,,,0.00,Wunderground v.1.15,2013-09-14 08:05:00,
2013-09-14 04:11:00,36.8,35.2,30.18,ENE,61,0.0,0.0,94,0.00,,,0.00,Wunderground v.1.15,2013-09-14 08:11:00,
2013-09-14 04:16:00,36.7,35.1,30.18,ENE,61,0.0,0.0,94,0.00,,,0.00,Wunderground v.1.15,2013-09-14 08:16:00,
2013-09-14 04:21:00,36.8,35.2,30.18,ENE,61,0.0,0.0,94,0.00,,,0.00,Wunderground v.1.15,2013-09-14 08:21:00,
2013-09-14 04:26:00,36.8,35.2,30.19,ENE,61,0.0,0.0,94,0.00,,,0.00,Wunderground v.1.15,2013-09-14 08:26:00,
2013-09-14 04:32:00,37.1,35.5,30.19,ENE,61,0.0,0.0,94,0.00,,,0.00,Wunderground v.1.15,2013-09-14 08:32:00,
2013-09-14 04:37:00,37.2,35.6,30.19,ENE,61,0.0,0.0,94,0.00,,,0.00,Wunderground v.1.15,2013-09-14 08:37:00,
2013-09-14 04:43:00,37.1,35.5,30.18,ENE,61,0.0,0.0,94,0.00,,,0.00,Wunderground v.1.15,2013-09-14 08:43:00,
2013-09-14 04:48:00,37.0,35.4,30.18,ENE,61,0.0,0.0,94,0.00,,,0.00,Wunderground v.1.15,2013-09-14 08:48:00,
2013-09-14 04:53:00,36.9,35.3,30.19,ENE,61,0.0,0.0,94,0.00,,,0.00,Wunderground v.1.15,2013-09-14 08:53:00,
2013-09-14 04:59:00,36.9,35.3,30.19,ENE,61,0.0,0.0,94,0.00,,,0.00,Wunderground v.1.15,2013-09-14 08:59:00,
2013-09-14 05:04:00,36.9,35.3,30.19,ENE,61,0.0,0.0,94,0.00,,,0.00,Wunderground v.1.15,2013-09-14 09:04:00,
2013-09-14 05:10:00,36.9,35.3,30.19,ENE,61,0.0,0.0,94,0.00,,,0.00,Wunderground v.1.15,2013-09-14 09:10:00,
2013-09-14 05:16:00,37.0,35.7,30.19,ENE,61,0.0,0.0,95,0.00,,,0.00,Wunderground v.1.15,2013-09-14 09:16:00,
2013-09-14 05:22:00,37.0,35.4,30.19,ENE,61,0.0,0.0,94,0.00,,,0.00,Wunderground v.1.15,2013-09-14 09:22:00,
2013-09-14 05:27:00,37.0,35.7,30.19,ENE,61,0.0,0.0,95,0.00,,,0.00,Wunderground v.1.15,2013-09-14 09:27:00,
2013-09-14 05:33:00,37.0,35.4,30.19,ENE,61,0.0,0.0,94,0.00,,,0.00,Wunderground v.1.15,2013-09-14 09:33:00,
2013-09-14 05:38:00,37.0,35.4,30.19,ENE,61,0.0,0.0,94,0.00,,,0.00,Wunderground v.1.15,2013-09-14 09:38:00,
2013-09-14 05:44:00,37.0,35.4,30.19,ENE,61,0.0,0.0,94,0.00,,,0.00,Wunderground v.1.15,2013-09-14 09:44:00,
2013-09-14 05:50:00,37.0,35.4,30.19,ENE,61,0.0,0.0,94,0.00,,,0.00,Wunderground v.1.15,2013-09-14 09:50:00,
2013-09-14 05:55:00,36.9,35.3,30.20,ENE,61,0.0,0.0,94,0.00,,,0.00,Wunderground v.1.15,2013-09-14 09:55:00,
2013-09-14 06:00:00,36.8,35.2,30.19,ENE,61,0.0,0.0,94,0.00,,,0.00,Wunderground v.1.15,2013-09-14 10:00:00,
2013-09-14 06:05:00,36.6,35.0,30.19,ENE,61,0.0,0.0,94,0.00,,,0.00,Wunderground v.1.15,2013-09-14 10:05:00,
2013-09-14 06:11:00,36.5,34.9,30.19,ENE,61,0.0,0.0,94,0.00,,,0.00,Wunderground v.1.15,2013-09-14 10:11:00,
2013-09-14 06:16:00,36.4,34.8,30.20,ENE,61,0.0,0.0,94,0.00,,,0.00,Wunderground v.1.15,2013-09-14 10:16:00,
2013-09-14 06:22:00,36.5,34.9,30.20,ENE,61,0.0,1.0,94,0.00,,,0.00,Wunderground v.1.15,2013-09-14 10:22:00,
2013-09-14 06:27:00,36.9,35.6,30.20,ENE,61,0.0,2.0,95,0.00,,,0.00,Wunderground v.1.15,2013-09-14 10:27:00,
2013-09-14 06:33:00,37.1,35.8,30.20,ENE,61,0.0,0.0,95,0.00,,,0.00,Wunderground v.1.15,2013-09-14 10:33:00,
2013-09-14 06:39:00,37.1,35.8,30.20,ENE,61,0.0,0.0,95,0.00,,,0.00,Wunderground v.1.15,2013-09-14 10:39:00,
2013-09-14 06:44:00,37.0,35.7,30.20,ENE,61,0.0,0.0,95,0.00,,,0.00,Wunderground v.1.15,2013-09-14 10:44:00,
2013-09-14 06:49:00,36.8,35.5,30.20,ENE,61,0.0,0.0,95,0.00,,,0.00,Wunderground v.1.15,2013-09-14 10:49:00,
2013-09-14 06:54:00,36.6,35.3,30.20,ENE,61,0.0,0.0,95,0.00,,,0.00,Wunderground v.1.15,2013-09-14 10:54:00,
2013-09-14 07:04:00,36.4,34.8,30.20,ENE,61,0.0,0.0,94,0.00,,,0.00,Wunderground v.1.15,2013-09-14 11:04:00,
2013-09-14 07:10:00,36.2,34.6,30.20,ENE,61,0.0,0.0,94,0.00,,,0.00,Wunderground v.1.15,2013-09-14 11:10:00,
2013-09-14 07:15:00,36.1,34.5,30.20,ENE,61,0.0,0.0,94,0.00,,,0.00,Wunderground v.1.15,2013-09-14 11:15:00,
2013-09-14 07:21:00,35.9,34.3,30.20,ENE,61,0.0,0.0,94,0.00,,,0.00,Wunderground v.1.15,2013-09-14 11:21:00,
2013-09-14 07:27:00,35.9,34.6,30.20,ENE,61,0.0,0.0,95,0.00,,,0.00,Wunderground v.1.15,2013-09-14 11:27:00,
2013-09-14 07:33:00,36.0,34.7,30.20,ENE,61,0.0,0.0,95,0.00,,,0.00,Wunderground v.1.15,2013-09-14 11:33:00,
2013-09-14 07:39:00,36.2,34.9,30.20,ENE,61,0.0,0.0,95,0.00,,,0.00,Wunderground v.1.15,2013-09-14 11:39:00,
2013-09-14 07:44:00,36.3,35.0,30.20,ENE,61,0.0,0.0,95,0.00,,,0.00,Wunderground v.1.15,2013-09-14 11:44:00,
2013-09-14 07:49:00,36.3,35.0,30.21,ENE,61,0.0,0.0,95,0.00,,,0.00,Wunderground v.1.15,2013-09-14 11:49:00,
2013-09-14 07:55:00,36.4,35.1,30.21,ENE,61,0.0,0.0,95,0.00,,,0.00,Wunderground v.1.15,2013-09-14 11:55:00,
2013-09-14 08:00:00,36.6,35.3,30.21,ENE,61,0.0,0.0,95,0.00,,,0.00,Wunderground v.1.15,2013-09-14 12:00:00,
2013-09-14 08:05:00,36.8,35.5,30.21,ENE,61,0.0,0.0,95,0.00,,,0.00,Wunderground v.1.15,2013-09-14 12:05:00,
2013-09-14 08:12:00,37.0,35.7,30.21,ENE,61,0.0,0.0,95,0.00,,,0.00,Wunderground v.1.15,2013-09-14 12:12:00,
2013-09-14 08:18:00,37.3,36.0,30.21,ENE,61,0.0,0.0,95,0.00,,,0.00,Wunderground v.1.15,2013-09-14 12:18:00,
2013-09-14 08:24:00,38.2,36.9,30.21,ENE,61,0.0,1.0,95,0.00,,,0.00,Wunderground v.1.15,2013-09-14 12:24:00,
2013-09-14 08:29:00,39.8,38.8,30.21,ENE,61,0.0,0.0,96,0.00,,,0.00,Wunderground v.1.15,2013-09-14 12:29:00,
2013-09-14 08:35:00,41.1,40.0,30.21,ENE,61,0.0,2.0,96,0.00,,,0.00,Wunderground v.1.15,2013-09-14 12:35:00,
2013-09-14 08:40:00,42.0,40.9,30.22,ENE,61,0.0,2.0,96,0.00,,,0.00,Wunderground v.1.15,2013-09-14 12:40:00,
2013-09-14 08:45:00,42.6,41.5,30.22,ENE,60,1.0,2.0,96,0.00,,,0.00,Wunderground v.1.15,2013-09-14 12:45:00,
2013-09-14 08:51:00,43.1,42.0,30.22,NW,315,1.0,1.0,96,0.00,,,0.00,Wunderground v.1.15,2013-09-14 12:51:00,
2013-09-14 08:57:00,43.7,42.6,30.22,NW,315,1.0,1.0,96,0.00,,,0.00,Wunderground v.1.15,2013-09-14 12:57:00,
2013-09-14 09:04:00,44.5,43.4,30.22,WNW,303,1.0,2.0,96,0.00,,,0.00,Wunderground v.1.15,2013-09-14 13:04:00,
2013-09-14 09:10:00,45.1,44.0,30.22,WNW,302,1.0,1.0,96,0.00,,,0.00,Wunderground v.1.15,2013-09-14 13:10:00,
2013-09-14 09:15:00,45.8,44.4,30.22,WNW,302,1.0,2.0,95,0.00,,,0.00,Wunderground v.1.15,2013-09-14 13:15:00,
2013-09-14 09:21:00,46.5,44.9,30.22,WNW,302,1.0,2.0,94,0.00,,,0.00,Wunderground v.1.15,2013-09-14 13:21:00,
2013-09-14 09:27:00,47.4,45.5,30.23,WNW,302,1.0,2.0,93,0.00,,,0.00,Wunderground v.1.15,2013-09-14 13:27:00,
2013-09-14 09:34:00,48.6,46.1,30.23,WNW,302,0.0,0.0,91,0.00,,,0.00,Wunderground v.1.15,2013-09-14 13:34:00,
2013-09-14 09:40:00,49.5,47.0,30.23,WNW,302,0.0,0.0,91,0.00,,,0.00,Wunderground v.1.15,2013-09-14 13:40:00,
2013-09-14 09:46:00,50.3,46.6,30.23,WNW,302,0.0,0.0,87,0.00,,,0.00,Wunderground v.1.15,2013-09-14 13:46:00,
2013-09-14 09:51:00,51.0,47.3,30.23,WNW,302,0.0,0.0,87,0.00,,,0.00,Wunderground v.1.15,2013-09-14 13:51:00,
2013-09-14 09:57:00,51.6,46.6,30.23,WNW,302,0.0,1.0,83,0.00,,,0.00,Wunderground v.1.15,2013-09-14 13:57:00,
2013-09-14 10:02:00,52.1,46.4,30.23,WNW,302,1.0,4.0,81,0.00,,,0.00,Wunderground v.1.15,2013-09-14 14:02:00,
2013-09-14 10:07:00,52.7,47.0,30.23,NNW,327,1.0,4.0,81,0.00,,,0.00,Wunderground v.1.15,2013-09-14 14:07:00,
2013-09-14 10:13:00,53.2,47.2,30.23,NNW,327,1.0,1.0,80,0.00,,,0.00,Wunderground v.1.15,2013-09-14 14:13:00,
2013-09-14 10:18:00,53.8,47.1,30.23,NNW,327,1.0,1.0,78,0.00,,,0.00,Wunderground v.1.15,2013-09-14 14:18:00,
2013-09-14 10:23:00,54.2,46.1,30.23,NNW,328,0.0,3.0,74,0.00,,,0.00,Wunderground v.1.15,2013-09-14 14:23:00,
2013-09-14 10:29:00,54.6,46.5,30.23,NW,326,1.0,3.0,74,0.00,,,0.00,Wunderground v.1.15,2013-09-14 14:29:00,
2013-09-14 10:34:00,54.8,44.8,30.23,NW,323,1.0,3.0,69,0.00,,,0.00,Wunderground v.1.15,2013-09-14 14:34:00,
2013-09-14 10:40:00,55.0,45.4,30.23,WNW,292,1.0,1.0,70,0.00,,,0.00,Wunderground v.1.15,2013-09-14 14:40:00,
2013-09-14 10:45:00,55.4,43.8,30.23,NNW,336,1.0,3.0,65,0.00,,,0.00,Wunderground v.1.15,2013-09-14 14:45:00,
2013-09-14 10:50:00,55.7,45.3,30.23,NNW,343,2.0,2.0,68,0.00,,,0.00,Wunderground v.1.15,2013-09-14 14:50:00,
2013-09-14 10:55:00,56.0,45.2,30.23,NNW,337,2.0,2.0,67,0.00,,,0.00,Wunderground v.1.15,2013-09-14 14:55:00,
2013-09-14 11:01:00,56.2,44.6,30.23,NW,325,2.0,3.0,65,0.00,,,0.00,Wunderground v.1.15,2013-09-14 15:01:00,
2013-09-14 11:06:00,56.4,45.2,30.23,WNW,298,2.0,6.0,66,0.00,,,0.00,Wunderground v.1.15,2013-09-14 15:06:00,
2013-09-14 11:13:00,56.8,46.0,30.23,WNW,296,2.0,3.0,67,0.00,,,0.00,Wunderground v.1.15,2013-09-14 15:13:00,
2013-09-14 11:19:00,57.2,44.3,30.23,WNW,294,1.0,4.0,62,0.00,,,0.00,Wunderground v.1.15,2013-09-14 15:19:00,
2013-09-14 11:25:00,57.4,45.3,30.23,WNW,297,1.0,7.0,64,0.00,,,0.00,Wunderground v.1.15,2013-09-14 15:25:00,
2013-09-14 11:31:00,57.6,46.3,30.23,WNW,294,2.0,3.0,66,0.00,,,0.00,Wunderground v.1.15,2013-09-14 15:31:00,
2013-09-14 11:36:00,57.8,46.5,30.23,NNW,339,2.0,3.0,66,0.00,,,0.00,Wunderground v.1.15,2013-09-14 15:36:00,
2013-09-14 11:41:00,58.4,44.6,30.22,West,279,2.0,6.0,60,0.00,,,0.00,Wunderground v.1.15,2013-09-14 15:41:00,
2013-09-14 11:46:00,58.3,45.3,30.22,West,279,2.0,6.0,62,0.00,,,0.00,Wunderground v.1.15,2013-09-14 15:46:00,
2013-09-14 11:53:00,58.7,47.0,30.21,West,279,1.0,2.0,65,0.00,,,0.00,Wunderground v.1.15,2013-09-14 15:53:00,
2013-09-14 11:58:00,59.0,46.8,30.22,West,279,0.0,2.0,64,0.00,,,0.00,Wunderground v.1.15,2013-09-14 15:58:00,
2013-09-14 12:03:00,59.0,45.1,30.22,WNW,282,1.0,2.0,60,0.00,,,0.00,Wunderground v.1.15,2013-09-14 16:03:00,
2013-09-14 12:09:00,59.4,45.5,30.21,WNW,282,1.0,3.0,60,0.00,,,0.00,Wunderground v.1.15,2013-09-14 16:09:00,
2013-09-14 12:14:00,59.5,45.2,30.21,West,271,1.0,4.0,59,0.00,,,0.00,Wunderground v.1.15,2013-09-14 16:14:00,
2013-09-14 12:20:00,59.6,44.8,30.21,West,273,1.0,2.0,58,0.00,,,0.00,Wunderground v.1.15,2013-09-14 16:20:00,
2013-09-14 12:26:00,59.8,44.5,30.21,West,276,1.0,3.0,57,0.00,,,0.00,Wunderground v.1.15,2013-09-14 16:26:00,
2013-09-14 12:31:00,59.6,45.2,30.21,West,279,1.0,1.0,59,0.00,,,0.00,Wunderground v.1.15,2013-09-14 16:31:00,
2013-09-14 12:36:00,60.0,44.3,30.21,WNW,291,1.0,8.0,56,0.00,,,0.00,Wunderground v.1.15,2013-09-14 16:36:00,
2013-09-14 12:43:00,59.9,45.5,30.21,WNW,292,2.0,2.0,59,0.00,,,0.00,Wunderground v.1.15,2013-09-14 16:43:00,
2013-09-14 12:49:00,60.2,46.3,30.20,WNW,292,1.0,3.0,60,0.00,,,0.00,Wunderground v.1.15,2013-09-14 16:49:00,
2013-09-14 12:54:00,61.0,46.6,30.20,WNW,290,1.0,2.0,59,0.00,,,0.00,Wunderground v.1.15,2013-09-14 16:54:00,
2013-09-14 13:00:00,61.4,46.9,30.20,WNW,297,1.0,1.0,59,0.00,,,0.00,Wunderground v.1.15,2013-09-14 17:00:00,
2013-09-14 13:05:00,61.8,45.9,30.20,WNW,290,1.0,3.0,56,0.00,,,0.00,Wunderground v.1.15,2013-09-14 17:05:00,
2013-09-14 13:11:00,62.2,46.3,30.20,WSW,252,1.0,3.0,56,0.00,,,0.00,Wunderground v.1.15,2013-09-14 17:11:00,
2013-09-14 13:16:00,62.5,44.1,30.19,SW,217,1.0,3.0,51,0.00,,,0.00,Wunderground v.1.15,2013-09-14 17:16:00,
2013-09-14 13:23:00,62.5,47.1,30.19,West,261,2.0,3.0,57,0.00,,,0.00,Wunderground v.1.15,2013-09-14 17:23:00,
2013-09-14 13:28:00,62.9,46.0,30.19,SSW,210,1.0,5.0,54,0.00,,,0.00,Wunderground v.1.15,2013-09-14 17:28:00,
2013-09-14 13:33:00,63.1,45.7,30.19,SSW,210,1.0,1.0,53,0.00,,,0.00,Wunderground v.1.15,2013-09-14 17:33:00,
2013-09-14 13:39:00,63.4,46.9,30.18,WSW,238,1.0,3.0,55,0.00,,,0.00,Wunderground v.1.15,2013-09-14 17:39:00,
2013-09-14 13:44:00,63.2,45.3,30.19,West,275,1.0,6.0,52,0.00,,,0.00,Wunderground v.1.15,2013-09-14 17:44:00,
2013-09-14 13:50:00,63.1,45.7,30.19,NW,304,2.0,4.0,53,0.00,,,0.00,Wunderground v.1.15,2013-09-14 17:50:00,
2013-09-14 13:55:00,63.3,46.9,30.18,WNW,303,1.0,4.0,55,0.00,,,0.00,Wunderground v.1.15,2013-09-14 17:55:00,
2013-09-14 14:01:00,63.8,47.8,30.18,NW,304,0.0,1.0,56,0.00,,,0.00,Wunderground v.1.15,2013-09-14 18:01:00,
2013-09-14 14:06:00,64.0,45.0,30.17,WNW,292,1.0,4.0,50,0.00,,,0.00,Wunderground v.1.15,2013-09-14 18:06:00,
2013-09-14 14:11:00,64.2,46.2,30.17,WNW,289,1.0,1.0,52,0.00,,,0.00,Wunderground v.1.15,2013-09-14 18:11:00,
2013-09-14 14:17:00,64.4,46.9,30.17,West,269,1.0,3.0,53,0.00,,,0.00,Wunderground v.1.15,2013-09-14 18:17:00,
2013-09-14 14:23:00,64.4,46.9,30.17,West,265,2.0,2.0,53,0.00,,,0.00,Wunderground v.1.15,2013-09-14 18:23:00,
2013-09-14 14:28:00,64.6,44.5,30.17,West,275,2.0,4.0,48,0.00,,,0.00,Wunderground v.1.15,2013-09-14 18:28:00,
2013-09-14 14:33:00,64.6,46.6,30.17,West,277,2.0,2.0,52,0.00,,,0.00,Wunderground v.1.15,2013-09-14 18:33:00,
2013-09-14 14:39:00,65.0,45.9,30.16,SSW,213,1.0,4.0,50,0.00,,,0.00,Wunderground v.1.15,2013-09-14 18:39:00,
2013-09-14 14:44:00,65.4,47.3,30.16,West,268,1.0,2.0,52,0.00,,,0.00,Wunderground v.1.15,2013-09-14 18:44:00,
2013-09-14 14:50:00,65.3,46.7,30.16,WNW,284,2.0,2.0,51,0.00,,,0.00,Wunderground v.1.15,2013-09-14 18:50:00,
2013-09-14 14:55:00,65.2,46.6,30.16,WNW,296,2.0,5.0,51,0.00,,,0.00,Wunderground v.1.15,2013-09-14 18:55:00,
2013-09-14 15:00:00,65.7,47.6,30.16,West,278,2.0,3.0,52,0.00,,,0.00,Wunderground v.1.15,2013-09-14 19:00:00,
2013-09-14 15:06:00,65.7,47.6,30.16,NW,304,2.0,3.0,52,0.00,,,0.00,Wunderground v.1.15,2013-09-14 19:06:00,
2013-09-14 15:11:00,65.6,47.0,30.15,SSW,204,3.0,6.0,51,0.00,,,0.00,Wunderground v.1.15,2013-09-14 19:11:00,
2013-09-14 15:17:00,65.8,48.2,30.14,WNW,302,3.0,7.0,53,0.00,,,0.00,Wunderground v.1.15,2013-09-14 19:17:00,
2013-09-14 15:23:00,66.0,47.9,30.14,WNW,291,2.0,3.0,52,0.00,,,0.00,Wunderground v.1.15,2013-09-14 19:23:00,
2013-09-14 15:29:00,66.2,47.0,30.14,WNW,286,2.0,4.0,50,0.00,,,0.00,Wunderground v.1.15,2013-09-14 19:29:00,
2013-09-14 15:34:00,66.5,46.2,30.14,West,271,2.0,7.0,48,0.00,,,0.00,Wunderground v.1.15,2013-09-14 19:34:00,
2013-09-14 15:40:00,66.6,47.9,30.14,SW,221,2.0,2.0,51,0.00,,,0.00,Wunderground v.1.15,2013-09-14 19:40:00,
2013-09-14 15:45:00,66.9,47.1,30.14,WSW,248,1.0,2.0,49,0.00,,,0.00,Wunderground v.1.15,2013-09-14 19:45:00,
2013-09-14 15:50:00,67.0,45.5,30.14,WSW,245,1.0,4.0,46,0.00,,,0.00,Wunderground v.1.15,2013-09-14 19:50:00,
2013-09-14 15:56:00,67.1,46.2,30.14,West,278,1.0,5.0,47,0.00,,,0.00,Wunderground v.1.15,2013-09-14 19:56:00,
2013-09-14 16:01:00,67.1,46.2,30.14,SSW,198,1.0,7.0,47,0.00,,,0.00,Wunderground v.1.15,2013-09-14 20:01:00,
2013-09-14 16:07:00,67.2,46.8,30.14,SSW,203,1.0,7.0,48,0.00,,,0.00,Wunderground v.1.15,2013-09-14 20:07:00,
2013-09-14 16:13:00,67.2,45.7,30.14,WNW,297,3.0,10.0,46,0.00,,,0.00,Wunderground v.1.15,2013-09-14 20:13:00,
2013-09-14 16:18:00,67.2,44.5,30.14,West,280,3.0,10.0,44,0.00,,,0.00,Wunderground v.1.15,2013-09-14 20:18:00,
2013-09-14 16:24:00,67.2,46.3,30.13,WNW,288,1.0,3.0,47,0.00,,,0.00,Wunderground v.1.15,2013-09-14 20:24:00,
2013-09-14 16:30:00,67.4,46.5,30.13,SW,232,1.0,1.0,47,0.00,,,0.00,Wunderground v.1.15,2013-09-14 20:30:00,
2013-09-14 16:35:00,67.6,46.1,30.13,WSW,241,1.0,2.0,46,0.00,,,0.00,Wunderground v.1.15,2013-09-14 20:35:00,
2013-09-14 16:41:00,68.0,45.9,30.12,WNW,292,2.0,7.0,45,0.00,,,0.00,Wunderground v.1.15,2013-09-14 20:41:00,
2013-09-14 16:46:00,68.1,46.5,30.13,West,281,2.0,7.0,46,0.00,,,0.00,Wunderground v.1.15,2013-09-14 20:46:00,
2013-09-14 16:52:00,68.4,46.2,30.12,West,281,0.0,2.0,45,0.00,,,0.00,Wunderground v.1.15,2013-09-14 20:52:00,
2013-09-14 16:58:00,68.6,45.8,30.12,WNW,294,1.0,5.0,44,0.00,,,0.00,Wunderground v.1.15,2013-09-14 20:58:00,
2013-09-14 17:03:00,68.6,45.2,30.12,WNW,298,1.0,2.0,43,0.00,,,0.00,Wunderground v.1.15,2013-09-14 21:03:00,
2013-09-14 17:09:00,68.5,45.7,30.12,WNW,284,1.0,1.0,44,0.00,,,0.00,Wunderground v.1.15,2013-09-14 21:09:00,
2013-09-14 17:14:00,68.6,44.6,30.12,West,271,1.0,3.0,42,0.00,,,0.00,Wunderground v.1.15,2013-09-14 21:14:00,
2013-09-14 17:20:00,68.9,44.2,30.12,WNW,295,1.0,5.0,41,0.00,,,0.00,Wunderground v.1.15,2013-09-14 21:20:00,
2013-09-14 17:25:00,68.6,43.9,30.12,West,273,1.0,6.0,41,0.00,,,0.00,Wunderground v.1.15,2013-09-14 21:25:00,
2013-09-14 17:31:00,68.6,44.6,30.12,West,268,1.0,3.0,42,0.00,,,0.00,Wunderground v.1.15,2013-09-14 21:31:00,
2013-09-14 17:36:00,68.7,44.7,30.12,West,269,1.0,3.0,42,0.00,,,0.00,Wunderground v.1.15,2013-09-14 21:36:00,
2013-09-14 17:41:00,68.8,44.8,30.12,West,271,1.0,3.0,42,0.00,,,0.00,Wunderground v.1.15,2013-09-14 21:41:00,
2013-09-14 17:46:00,68.6,45.2,30.12,West,271,1.0,3.0,43,0.00,,,0.00,Wunderground v.1.15,2013-09-14 21:46:00,
2013-09-14 17:52:00,67.9,45.2,30.12,WSW,251,1.0,1.0,44,0.00,,,0.00,Wunderground v.1.15,2013-09-14 21:52:00,
2013-09-14 17:58:00,67.2,45.7,30.12,WSW,253,1.0,4.0,46,0.00,,,0.00,Wunderground v.1.15,2013-09-14 21:58:00,
2013-09-14 18:04:00,67.3,45.8,30.12,West,263,1.0,3.0,46,0.00,,,0.00,Wunderground v.1.15,2013-09-14 22:04:00,
2013-09-14 18:10:00,67.4,44.1,30.12,WNW,288,2.0,2.0,43,0.00,,,0.00,Wunderground v.1.15,2013-09-14 22:10:00,
2013-09-14 18:15:00,67.5,44.2,30.12,WNW,288,2.0,2.0,43,0.00,,,0.00,Wunderground v.1.15,2013-09-14 22:15:00,
2013-09-14 18:20:00,67.2,44.5,30.12,WNW,284,2.0,5.0,44,0.00,,,0.00,Wunderground v.1.15,2013-09-14 22:20:00,
2013-09-14 18:25:00,66.7,43.5,30.11,WNW,282,3.0,5.0,43,0.00,,,0.00,Wunderground v.1.15,2013-09-14 22:25:00,
2013-09-14 18:31:00,66.4,44.4,30.11,WNW,282,2.0,2.0,45,0.00,,,0.00,Wunderground v.1.15,2013-09-14 22:31:00,
2013-09-14 18:36:00,66.3,44.9,30.12,WNW,282,1.0,3.0,46,0.00,,,0.00,Wunderground v.1.15,2013-09-14 22:36:00,
2013-09-14 18:42:00,65.7,44.9,30.11,West,276,2.0,2.0,47,0.00,,,0.00,Wunderground v.1.15,2013-09-14 22:42:00,
2013-09-14 18:48:00,65.1,44.9,30.11,West,276,1.0,2.0,48,0.00,,,0.00,Wunderground v.1.15,2013-09-14 22:48:00,
2013-09-14 18:53:00,64.9,45.8,30.11,West,276,0.0,1.0,50,0.00,,,0.00,Wunderground v.1.15,2013-09-14 22:53:00,
2013-09-14 18:55:00,64.9,45.8,30.11,West,276,0.0,1.0,50,0.00,,,0.00,Wunderground v.1.15,2013-09-14 22:55:00,
2013-09-14 19:00:00,64.9,45.8,30.11,West,276,0.0,0.0,50,0.00,,,0.00,Wunderground v.1.15,2013-09-14 23:00:00,
2013-09-14 19:06:00,65.2,46.6,30.11,West,276,0.0,0.0,51,0.00,,,0.00,Wunderground v.1.15,2013-09-14 23:06:00,
2013-09-14 19:11:00,65.0,46.4,30.11,West,276,0.0,0.0,51,0.00,,,0.00,Wunderground v.1.15,2013-09-14 23:11:00,
2013-09-14 19:17:00,64.5,47.5,30.12,West,276,0.0,0.0,54,0.00,,,0.00,Wunderground v.1.15,2013-09-14 23:17:00,
2013-09-14 19:22:00,64.0,47.0,30.12,West,276,0.0,0.0,54,0.00,,,0.00,Wunderground v.1.15,2013-09-14 23:22:00,
2013-09-14 19:28:00,63.1,47.6,30.11,West,276,0.0,0.0,57,0.00,,,0.00,Wunderground v.1.15,2013-09-14 23:28:00,
2013-09-14 19:34:00,62.3,47.8,30.12,West,276,0.0,0.0,59,0.00,,,0.00,Wunderground v.1.15,2013-09-14 23:34:00,
2013-09-14 19:40:00,61.3,47.7,30.12,West,276,0.0,0.0,61,0.00,,,0.00,Wunderground v.1.15,2013-09-14 23:40:00,
2013-09-14 19:45:00,60.4,47.7,30.12,West,276,0.0,0.0,63,0.00,,,0.00,Wunderground v.1.15,2013-09-14 23:45:00,
2013-09-14 19:51:00,59.3,47.5,30.12,West,276,0.0,0.0,65,0.00,,,0.00,Wunderground v.1.15,2013-09-14 23:51:00,
2013-09-14 19:56:00,58.7,47.8,30.12,West,276,0.0,0.0,67,0.00,,,0.00,Wunderground v.1.15,2013-09-14 23:56:00,
2013-09-14 20:02:00,57.7,47.6,30.12,West,276,0.0,0.0,69,0.00,,,0.00,Wunderground v.1.15,2013-09-15 00:02:00,
2013-09-14 20:08:00,56.8,47.5,30.12,West,276,0.0,0.0,71,0.00,,,0.00,Wunderground v.1.15,2013-09-15 00:08:00,
2013-09-14 20:13:00,56.1,47.2,30.12,West,276,0.0,0.0,72,0.00,,,0.00,Wunderground v.1.15,2013-09-15 00:13:00,
2013-09-14 20:19:00,55.3,47.2,30.13,West,276,0.0,0.0,74,0.00,,,0.00,Wunderground v.1.15,2013-09-15 00:19:00,
2013-09-14 20:24:00,54.7,46.9,30.12,West,276,0.0,0.0,75,0.00,,,0.00,Wunderground v.1.15,2013-09-15 00:24:00,
2013-09-14 20:30:00,54.1,46.7,30.13,West,276,0.0,0.0,76,0.00,,,0.00,Wunderground v.1.15,2013-09-15 00:30:00,
2013-09-14 20:35:00,53.6,46.6,30.13,West,276,0.0,0.0,77,0.00,,,0.00,Wunderground v.1.15,2013-09-15 00:35:00,
2013-09-14 20:41:00,53.1,46.4,30.13,West,276,0.0,0.0,78,0.00,,,0.00,Wunderground v.1.15,2013-09-15 00:41:00,
2013-09-14 20:46:00,52.8,46.5,30.13,West,276,0.0,0.0,79,0.00,,,0.00,Wunderground v.1.15,2013-09-15 00:46:00,
2013-09-14 20:51:00,52.4,46.4,30.13,West,276,0.0,0.0,80,0.00,,,0.00,Wunderground v.1.15,2013-09-15 00:51:00,
2013-09-14 20:56:00,52.1,46.4,30.13,West,276,0.0,0.0,81,0.00,,,0.00,Wunderground v.1.15,2013-09-15 00:56:00,
2013-09-14 21:02:00,51.8,46.5,30.13,West,276,0.0,0.0,82,0.00,,,0.00,Wunderground v.1.15,2013-09-15 01:02:00,
2013-09-14 21:08:00,51.6,46.6,30.13,West,276,0.0,0.0,83,0.00,,,0.00,Wunderground v.1.15,2013-09-15 01:08:00,
2013-09-14 21:13:00,51.4,46.7,30.13,West,276,0.0,0.0,84,0.00,,,0.00,Wunderground v.1.15,2013-09-15 01:13:00,
2013-09-14 21:19:00,51.1,46.7,30.13,West,276,0.0,0.0,85,0.00,,,0.00,Wunderground v.1.15,2013-09-15 01:19:00,
2013-09-14 21:24:00,51.0,47.0,30.13,West,276,0.0,0.0,86,0.00,,,0.00,Wunderground v.1.15,2013-09-15 01:24:00,
2013-09-14 21:30:00,50.9,47.2,30.13,West,276,0.0,0.0,87,0.00,,,0.00,Wunderground v.1.15,2013-09-15 01:30:00,
2013-09-14 21:36:00,50.8,47.1,30.13,West,276,0.0,0.0,87,0.00,,,0.00,Wunderground v.1.15,2013-09-15 01:36:00,
2013-09-14 21:41:00,50.6,46.9,30.13,West,276,0.0,0.0,87,0.00,,,0.00,Wunderground v.1.15,2013-09-15 01:41:00,
2013-09-14 21:46:00,50.6,46.9,30.13,West,276,0.0,0.0,87,0.00,,,0.00,Wunderground v.1.15,2013-09-15 01:46:00,
2013-09-14 21:52:00,50.6,47.2,30.12,West,276,0.0,0.0,88,0.00,,,0.00,Wunderground v.1.15,2013-09-15 01:52:00,
2013-09-14 21:58:00,50.6,46.9,30.12,West,276,0.0,0.0,87,0.00,,,0.00,Wunderground v.1.15,2013-09-15 01:58:00,
2013-09-14 22:03:00,50.6,46.9,30.12,West,276,0.0,0.0,87,0.00,,,0.00,Wunderground v.1.15,2013-09-15 02:03:00,
2013-09-14 22:09:00,50.7,46.7,30.12,West,276,0.0,0.0,86,0.00,,,0.00,Wunderground v.1.15,2013-09-15 02:09:00,
2013-09-14 22:14:00,51.0,46.6,30.12,West,276,0.0,1.0,85,0.00,,,0.00,Wunderground v.1.15,2013-09-15 02:14:00,
2013-09-14 22:20:00,51.2,46.2,30.12,West,276,0.0,0.0,83,0.00,,,0.00,Wunderground v.1.15,2013-09-15 02:20:00,
2013-09-14 22:25:00,51.4,46.4,30.12,West,276,0.0,0.0,83,0.00,,,0.00,Wunderground v.1.15,2013-09-15 02:25:00,
2013-09-14 22:30:00,51.5,46.2,30.12,West,276,0.0,0.0,82,0.00,,,0.00,Wunderground v.1.15,2013-09-15 02:30:00,
2013-09-14 22:35:00,51.6,46.3,30.11,West,276,0.0,0.0,82,0.00,,,0.00,Wunderground v.1.15,2013-09-15 02:35:00,
2013-09-14 22:41:00,51.7,46.4,30.11,West,276,0.0,0.0,82,0.00,,,0.00,Wunderground v.1.15,2013-09-15 02:41:00,
2013-09-14 22:46:00,51.7,46.4,30.12,West,276,0.0,0.0,82,0.00,,,0.00,Wunderground v.1.15,2013-09-15 02:46:00,
2013-09-14 22:52:00,51.6,46.3,30.12,West,276,0.0,0.0,82,0.00,,,0.00,Wunderground v.1.15,2013-09-15 02:52:00,
2013-09-14 22:58:00,51.4,46.1,30.12,West,276,0.0,0.0,82,0.00,,,0.00,Wunderground v.1.15,2013-09-15 02:58:00,
2013-09-14 23:03:00,51.2,45.9,30.12,West,276,0.0,0.0,82,0.00,,,0.00,Wunderground v.1.15,2013-09-15 03:03:00,
2013-09-14 23:09:00,50.9,45.6,30.11,West,276,0.0,0.0,82,0.00,,,0.00,Wunderground v.1.15,2013-09-15 03:09:00,
2013-09-14 23:14:00,50.7,45.7,30.11,West,276,0.0,0.0,83,0.00,,,0.00,Wunderground v.1.15,2013-09-15 03:14:00,
2013-09-14 23:19:00,50.7,45.7,30.11,West,276,0.0,0.0,83,0.00,,,0.00,Wunderground v.1.15,2013-09-15 03:19:00,
2013-09-14 23:25:00,50.8,45.8,30.11,West,276,0.0,1.0,83,0.00,,,0.00,Wunderground v.1.15,2013-09-15 03:25:00,
2013-09-14 23:30:00,50.9,45.9,30.11,West,276,0.0,0.0,83,0.00,,,0.00,Wunderground v.1.15,2013-09-15 03:30:00,
2013-09-14 23:35:00,51.1,46.1,30.11,West,276,0.0,0.0,83,0.00,,,0.00,Wunderground v.1.15,2013-09-15 03:35:00,
2013-09-14 23:41:00,51.4,46.1,30.11,West,276,0.0,0.0,82,0.00,,,0.00,Wunderground v.1.15,2013-09-15 03:41:00,
2013-09-14 23:46:00,51.9,46.3,30.11,West,276,0.0,0.0,81,0.00,,,0.00,Wunderground v.1.15,2013-09-15 03:46:00,
2013-09-14 23:52:00,52.0,46.3,30.12,West,276,0.0,0.0,81,0.00,,,0.00,Wunderground v.1.15,2013-09-15 03:52:00,
2013-09-14 23:58:00,52.0,46.0,30.11,West,276,0.0,0.0,80,0.00,,,0.00,Wunderground v.1.15,2013-09-15 03:58:00,